カタログに戻る

STARLINK-11176

運用中通信VLEO
NORAD 60060·PAYLOAD·🇺🇸 United States

打ち上げ Jun 19, 2024 から Vandenberg Space Force Base

Loading…

次のパス (今後24時間)

TLE

最新Source: CelesTrak SupGP

元期: Sep 14, 2026, 21:17 UTC

1 60060C 24113B   26257.88729167 -.00052626  00000+0 -43335-3 0  2573
2 60060  53.1563 338.6101 0001138  77.5586   1.8453 15.69743829    16

AllMySatでSTARLINK-11176をリアルタイム追跡

Download on the App Store